date,time,water_lv
2023-11-01,00:00:00,0.105
2023-11-01,00:10:00,0.092
2023-11-01,00:20:00,0.079
2023-11-01,00:30:00,0.062
2023-11-01,00:40:00,0.054
2023-11-01,00:50:00,0.042
2023-11-01,01:00:00,0.032
2023-11-01,01:10:00,0.021
2023-11-01,01:20:00,0.012
2023-11-01,01:30:00,0.003
2023-11-01,01:40:00,-0.007
2023-11-01,01:50:00,-0.014
2023-11-01,02:00:00,-0.022
2023-11-01,02:10:00,-0.03
2023-11-01,02:20:00,-0.038
2023-11-01,02:30:00,-0.047
2023-11-01,02:40:00,-0.05
2023-11-01,02:50:00,-0.057
2023-11-01,03:00:00,-0.064
2023-11-01,03:10:00,-0.068
2023-11-01,03:20:00,-0.075
2023-11-01,03:30:00,-0.077
2023-11-01,03:40:00,-0.083
2023-11-01,03:50:00,-0.088
2023-11-01,04:00:00,-0.092
2023-11-01,04:10:00,-0.093
2023-11-01,04:20:00,-0.099
2023-11-01,04:30:00,-0.102
2023-11-01,04:40:00,-0.109
2023-11-01,04:50:00,-0.105
2023-11-01,05:00:00,-0.108
2023-11-01,05:10:00,-0.103
2023-11-01,05:20:00,-0.096
2023-11-01,05:30:00,-0.083
2023-11-01,05:40:00,-0.058
2023-11-01,05:50:00,-0.028
2023-11-01,06:00:00,0.019
2023-11-01,06:10:00,0.065
2023-11-01,06:20:00,0.112
2023-11-01,06:30:00,0.155
2023-11-01,06:40:00,0.203
2023-11-01,06:50:00,0.253
2023-11-01,07:00:00,0.3
2023-11-01,07:10:00,0.348
2023-11-01,07:20:00,0.394
2023-11-01,07:30:00,0.44
2023-11-01,07:40:00,0.478
2023-11-01,07:50:00,0.526
2023-11-01,08:00:00,0.567
2023-11-01,08:10:00,0.608
2023-11-01,08:20:00,0.649
2023-11-01,08:30:00,0.689
2023-11-01,08:40:00,0.724
2023-11-01,08:50:00,0.763
2023-11-01,09:00:00,0.798
2023-11-01,09:10:00,0.835
2023-11-01,09:20:00,0.866
2023-11-01,09:30:00,0.898
2023-11-01,09:40:00,0.924
2023-11-01,09:50:00,0.951
2023-11-01,10:00:00,0.975
2023-11-01,10:10:00,1
2023-11-01,10:20:00,1.02
2023-11-01,10:30:00,1.037
2023-11-01,10:40:00,1.05
2023-11-01,10:50:00,1.056
2023-11-01,11:00:00,1.049
2023-11-01,11:10:00,1.042
2023-11-01,11:20:00,1.032
2023-11-01,11:30:00,1.017
2023-11-01,11:40:00,1.013
2023-11-01,11:50:00,1
2023-11-01,12:00:00,0.992
2023-11-01,12:10:00,0.976
2023-11-01,12:20:00,0.962
2023-11-01,12:30:00,0.948
2023-11-01,12:40:00,0.928
2023-11-01,12:50:00,0.914
2023-11-01,13:00:00,0.899
2023-11-01,13:10:00,0.885
2023-11-01,13:20:00,0.873
2023-11-01,13:30:00,0.862
2023-11-01,13:40:00,0.85
2023-11-01,13:50:00,0.836
2023-11-01,14:00:00,0.821
2023-11-01,14:10:00,0.799
2023-11-01,14:20:00,0.79
2023-11-01,14:30:00,0.771
2023-11-01,14:40:00,0.758
2023-11-01,14:50:00,0.747
2023-11-01,15:00:00,0.742
2023-11-01,15:10:00,0.737
2023-11-01,15:20:00,0.732
2023-11-01,15:30:00,0.721
2023-11-01,15:40:00,0.712
2023-11-01,15:50:00,0.708
2023-11-01,16:00:00,0.702
2023-11-01,16:10:00,0.696
2023-11-01,16:20:00,0.692
2023-11-01,16:30:00,0.692
2023-11-01,16:40:00,0.692
2023-11-01,16:50:00,0.693
2023-11-01,17:00:00,0.701
2023-11-01,17:10:00,0.715
2023-11-01,17:20:00,0.714
2023-11-01,17:30:00,0.719
2023-11-01,17:40:00,0.724
2023-11-01,17:50:00,0.72
2023-11-01,18:00:00,0.712
2023-11-01,18:10:00,0.703
2023-11-01,18:20:00,0.7
2023-11-01,18:30:00,0.7
2023-11-01,18:40:00,0.694
2023-11-01,18:50:00,0.688
2023-11-01,19:00:00,0.676
2023-11-01,19:10:00,0.66
2023-11-01,19:20:00,0.647
2023-11-01,19:30:00,0.631
2023-11-01,19:40:00,0.614
2023-11-01,19:50:00,0.603
2023-11-01,20:00:00,0.587
2023-11-01,20:10:00,0.571
2023-11-01,20:20:00,0.556
2023-11-01,20:30:00,0.541
2023-11-01,20:40:00,0.524
2023-11-01,20:50:00,0.507
2023-11-01,21:00:00,0.487
2023-11-01,21:10:00,0.464
2023-11-01,21:20:00,0.448
2023-11-01,21:30:00,0.427
2023-11-01,21:40:00,0.407
2023-11-01,21:50:00,0.386
2023-11-01,22:00:00,0.366
2023-11-01,22:10:00,0.345
2023-11-01,22:20:00,0.323
2023-11-01,22:30:00,0.303
2023-11-01,22:40:00,0.282
2023-11-01,22:50:00,0.259
2023-11-01,23:00:00,0.237
2023-11-01,23:10:00,0.218
2023-11-01,23:20:00,0.198
2023-11-01,23:30:00,0.177
2023-11-01,23:40:00,0.158
2023-11-01,23:50:00,0.139
2023-11-02,00:00:00,0.122
2023-11-02,00:10:00,0.107
2023-11-02,00:20:00,0.089
2023-11-02,00:30:00,0.072
2023-11-02,00:40:00,0.058
2023-11-02,00:50:00,0.041
2023-11-02,01:00:00,0.026
2023-11-02,01:10:00,0.012
2023-11-02,01:20:00,-0.002
2023-11-02,01:30:00,-0.015
2023-11-02,01:40:00,-0.03
2023-11-02,01:50:00,-0.04
2023-11-02,02:00:00,-0.05
2023-11-02,02:10:00,-0.061
2023-11-02,02:20:00,-0.068
2023-11-02,02:30:00,-0.079
2023-11-02,02:40:00,-0.088
2023-11-02,02:50:00,-0.095
2023-11-02,03:00:00,-0.106
2023-11-02,03:10:00,-0.111
2023-11-02,03:20:00,-0.123
2023-11-02,03:30:00,-0.123
2023-11-02,03:40:00,-0.132
2023-11-02,03:50:00,-0.136
2023-11-02,04:00:00,-0.14
2023-11-02,04:10:00,-0.147
2023-11-02,04:20:00,-0.149
2023-11-02,04:30:00,-0.153
2023-11-02,04:40:00,-0.156
2023-11-02,04:50:00,-0.16
2023-11-02,05:00:00,-0.167
2023-11-02,05:10:00,-0.171
2023-11-02,05:20:00,-0.176
2023-11-02,05:30:00,-0.178
2023-11-02,05:40:00,-0.176
2023-11-02,05:50:00,-0.18
2023-11-02,06:00:00,-0.183
2023-11-02,06:10:00,-0.177
2023-11-02,06:20:00,-0.173
2023-11-02,06:30:00,-0.157
2023-11-02,06:40:00,-0.131
2023-11-02,06:50:00,-0.09
2023-11-02,07:00:00,-0.05
2023-11-02,07:10:00,-0.009
2023-11-02,07:20:00,0.03
2023-11-02,07:30:00,0.075
2023-11-02,07:40:00,0.119
2023-11-02,07:50:00,0.166
2023-11-02,08:00:00,0.209
2023-11-02,08:10:00,0.253
2023-11-02,08:20:00,0.298
2023-11-02,08:30:00,0.345
2023-11-02,08:40:00,0.388
2023-11-02,08:50:00,0.434
2023-11-02,09:00:00,0.475
2023-11-02,09:10:00,0.516
2023-11-02,09:20:00,0.553
2023-11-02,09:30:00,0.592
2023-11-02,09:40:00,0.627
2023-11-02,09:50:00,0.666
2023-11-02,10:00:00,0.703
2023-11-02,10:10:00,0.742
2023-11-02,10:20:00,0.775
2023-11-02,10:30:00,0.809
2023-11-02,10:40:00,0.838
2023-11-02,10:50:00,0.873
2023-11-02,11:00:00,0.899
2023-11-02,11:10:00,0.92
2023-11-02,11:20:00,0.939
2023-11-02,11:30:00,0.957
2023-11-02,11:40:00,0.976
2023-11-02,11:50:00,0.995
2023-11-02,12:00:00,1.013
2023-11-02,12:10:00,1.023
2023-11-02,12:20:00,1.028
2023-11-02,12:30:00,1.019
2023-11-02,12:40:00,1.019
2023-11-02,12:50:00,1.012
2023-11-02,13:00:00,0.998
2023-11-02,13:10:00,0.986
2023-11-02,13:20:00,0.968
2023-11-02,13:30:00,0.953
2023-11-02,13:40:00,0.941
2023-11-02,13:50:00,0.925
2023-11-02,14:00:00,0.908
2023-11-02,14:10:00,0.897
2023-11-02,14:20:00,0.879
2023-11-02,14:30:00,0.865
2023-11-02,14:40:00,0.855
2023-11-02,14:50:00,0.849
2023-11-02,15:00:00,0.842
2023-11-02,15:10:00,0.833
2023-11-02,15:20:00,0.825
2023-11-02,15:30:00,0.818
2023-11-02,15:40:00,0.809
2023-11-02,15:50:00,0.795
2023-11-02,16:00:00,0.776
2023-11-02,16:10:00,0.764
2023-11-02,16:20:00,0.755
2023-11-02,16:30:00,0.751
2023-11-02,16:40:00,0.758
2023-11-02,16:50:00,0.75
2023-11-02,17:00:00,0.747
2023-11-02,17:10:00,0.741
2023-11-02,17:20:00,0.739
2023-11-02,17:30:00,0.735
2023-11-02,17:40:00,0.722
2023-11-02,17:50:00,0.707
2023-11-02,18:00:00,0.693
2023-11-02,18:10:00,0.68
2023-11-02,18:20:00,0.668
2023-11-02,18:30:00,0.661
2023-11-02,18:40:00,0.652
2023-11-02,18:50:00,0.642
2023-11-02,19:00:00,0.631
2023-11-02,19:10:00,0.616
2023-11-02,19:20:00,0.605
2023-11-02,19:30:00,0.596
2023-11-02,19:40:00,0.585
2023-11-02,19:50:00,0.572
2023-11-02,20:00:00,0.557
2023-11-02,20:10:00,0.543
2023-11-02,20:20:00,0.526
2023-11-02,20:30:00,0.508
2023-11-02,20:40:00,0.491
2023-11-02,20:50:00,0.473
2023-11-02,21:00:00,0.453
2023-11-02,21:10:00,0.433
2023-11-02,21:20:00,0.413
2023-11-02,21:30:00,0.394
2023-11-02,21:40:00,0.373
2023-11-02,21:50:00,0.353
2023-11-02,22:00:00,0.332
2023-11-02,22:10:00,0.312
2023-11-02,22:20:00,0.291
2023-11-02,22:30:00,0.27
2023-11-02,22:40:00,0.248
2023-11-02,22:50:00,0.226
2023-11-02,23:00:00,0.207
2023-11-02,23:10:00,0.185
2023-11-02,23:20:00,0.164
2023-11-02,23:30:00,0.146
2023-11-02,23:40:00,0.127
2023-11-02,23:50:00,0.108
2023-11-03,00:00:00,0.09
2023-11-03,00:10:00,0.072
2023-11-03,00:20:00,0.055
2023-11-03,00:30:00,0.039
2023-11-03,00:40:00,0.024
2023-11-03,00:50:00,0.008
2023-11-03,01:00:00,-0.007
2023-11-03,01:10:00,-0.021
2023-11-03,01:20:00,-0.035
2023-11-03,01:30:00,-0.048
2023-11-03,01:40:00,-0.058
2023-11-03,01:50:00,-0.07
2023-11-03,02:00:00,-0.084
2023-11-03,02:10:00,-0.091
2023-11-03,02:20:00,-0.102
2023-11-03,02:30:00,-0.11
2023-11-03,02:40:00,-0.118
2023-11-03,02:50:00,-0.127
2023-11-03,03:00:00,-0.133
2023-11-03,03:10:00,-0.139
2023-11-03,03:20:00,-0.147
2023-11-03,03:30:00,-0.152
2023-11-03,03:40:00,-0.158
2023-11-03,03:50:00,-0.164
2023-11-03,04:00:00,-0.171
2023-11-03,04:10:00,-0.177
2023-11-03,04:20:00,-0.178
2023-11-03,04:30:00,-0.185
2023-11-03,04:40:00,-0.188
2023-11-03,04:50:00,-0.191
2023-11-03,05:00:00,-0.195
2023-11-03,05:10:00,-0.197
2023-11-03,05:20:00,-0.199
2023-11-03,05:30:00,-0.204
2023-11-03,05:40:00,-0.207
2023-11-03,05:50:00,-0.21
2023-11-03,06:00:00,-0.211
2023-11-03,06:10:00,-0.217
2023-11-03,06:20:00,-0.219
2023-11-03,06:30:00,-0.219
2023-11-03,06:40:00,-0.221
2023-11-03,06:50:00,-0.225
2023-11-03,07:00:00,-0.221
2023-11-03,07:10:00,-0.214
2023-11-03,07:20:00,-0.2
2023-11-03,07:30:00,-0.172
2023-11-03,07:40:00,-0.133
2023-11-03,07:50:00,-0.095
2023-11-03,08:00:00,-0.057
2023-11-03,08:10:00,-0.016
2023-11-03,08:20:00,0.02
2023-11-03,08:30:00,0.066
2023-11-03,08:40:00,0.109
2023-11-03,08:50:00,0.156
2023-11-03,09:00:00,0.198
2023-11-03,09:10:00,0.245
2023-11-03,09:20:00,0.287
2023-11-03,09:30:00,0.33
2023-11-03,09:40:00,0.372
2023-11-03,09:50:00,0.414
2023-11-03,10:00:00,0.455
2023-11-03,10:10:00,0.495
2023-11-03,10:20:00,0.529
2023-11-03,10:30:00,0.569
2023-11-03,10:40:00,0.603
2023-11-03,10:50:00,0.638
2023-11-03,11:00:00,0.669
2023-11-03,11:10:00,0.703
2023-11-03,11:20:00,0.733
2023-11-03,11:30:00,0.762
2023-11-03,11:40:00,0.787
2023-11-03,11:50:00,0.814
2023-11-03,12:00:00,0.833
2023-11-03,12:10:00,0.857
2023-11-03,12:20:00,0.88
2023-11-03,12:30:00,0.904
2023-11-03,12:40:00,0.919
2023-11-03,12:50:00,0.931
2023-11-03,13:00:00,0.937
2023-11-03,13:10:00,0.941
2023-11-03,13:20:00,0.94
2023-11-03,13:30:00,0.942
2023-11-03,13:40:00,0.94
2023-11-03,13:50:00,0.94
2023-11-03,14:00:00,0.934
2023-11-03,14:10:00,0.924
2023-11-03,14:20:00,0.913
2023-11-03,14:30:00,0.903
2023-11-03,14:40:00,0.891
2023-11-03,14:50:00,0.882
2023-11-03,15:00:00,0.872
2023-11-03,15:10:00,0.864
2023-11-03,15:20:00,0.851
2023-11-03,15:30:00,0.841
2023-11-03,15:40:00,0.829
2023-11-03,15:50:00,0.819
2023-11-03,16:00:00,0.809
2023-11-03,16:10:00,0.795
2023-11-03,16:20:00,0.784
2023-11-03,16:30:00,0.774
2023-11-03,16:40:00,0.766
2023-11-03,16:50:00,0.756
2023-11-03,17:00:00,0.749
2023-11-03,17:10:00,0.748
2023-11-03,17:20:00,0.742
2023-11-03,17:30:00,0.735
2023-11-03,17:40:00,0.728
2023-11-03,17:50:00,0.717
2023-11-03,18:00:00,0.712
2023-11-03,18:10:00,0.7
2023-11-03,18:20:00,0.689
2023-11-03,18:30:00,0.678
2023-11-03,18:40:00,0.666
2023-11-03,18:50:00,0.658
2023-11-03,19:00:00,0.649
2023-11-03,19:10:00,0.646
2023-11-03,19:20:00,0.639
2023-11-03,19:30:00,0.631
2023-11-03,19:40:00,0.618
2023-11-03,19:50:00,0.601
2023-11-03,20:00:00,0.586
2023-11-03,20:10:00,0.57
2023-11-03,20:20:00,0.552
2023-11-03,20:30:00,0.532
2023-11-03,20:40:00,0.516
2023-11-03,20:50:00,0.499
2023-11-03,21:00:00,0.481
2023-11-03,21:10:00,0.463
2023-11-03,21:20:00,0.444
2023-11-03,21:30:00,0.424
2023-11-03,21:40:00,0.406
2023-11-03,21:50:00,0.386
2023-11-03,22:00:00,0.367
2023-11-03,22:10:00,0.346
2023-11-03,22:20:00,0.327
2023-11-03,22:30:00,0.305
2023-11-03,22:40:00,0.285
2023-11-03,22:50:00,0.264
2023-11-03,23:00:00,0.243
2023-11-03,23:10:00,0.223
2023-11-03,23:20:00,0.202
2023-11-03,23:30:00,0.181
2023-11-03,23:40:00,0.161
2023-11-03,23:50:00,0.141
2023-11-04,00:00:00,0.122
2023-11-04,00:10:00,0.101
2023-11-04,00:20:00,0.085
2023-11-04,00:30:00,0.066
2023-11-04,00:40:00,0.047
2023-11-04,00:50:00,0.031
2023-11-04,01:00:00,0.014
2023-11-04,01:10:00,-0.002
2023-11-04,01:20:00,-0.017
2023-11-04,01:30:00,-0.03
2023-11-04,01:40:00,-0.045
2023-11-04,01:50:00,-0.06
2023-11-04,02:00:00,-0.074
2023-11-04,02:10:00,-0.085
2023-11-04,02:20:00,-0.098
2023-11-04,02:30:00,-0.108
2023-11-04,02:40:00,-0.119
2023-11-04,02:50:00,-0.127
2023-11-04,03:00:00,-0.137
2023-11-04,03:10:00,-0.149
2023-11-04,03:20:00,-0.153
2023-11-04,03:30:00,-0.163
2023-11-04,03:40:00,-0.167
2023-11-04,03:50:00,-0.173
2023-11-04,04:00:00,-0.181
2023-11-04,04:10:00,-0.188
2023-11-04,04:20:00,-0.192
2023-11-04,04:30:00,-0.198
2023-11-04,04:40:00,-0.204
2023-11-04,04:50:00,-0.206
2023-11-04,05:00:00,-0.212
2023-11-04,05:10:00,-0.218
2023-11-04,05:20:00,-0.222
2023-11-04,05:30:00,-0.227
2023-11-04,05:40:00,-0.228
2023-11-04,05:50:00,-0.234
2023-11-04,06:00:00,-0.235
2023-11-04,06:10:00,-0.239
2023-11-04,06:20:00,-0.242
2023-11-04,06:30:00,-0.243
2023-11-04,06:40:00,-0.247
2023-11-04,06:50:00,-0.249
2023-11-04,07:00:00,-0.249
2023-11-04,07:10:00,-0.252
2023-11-04,07:20:00,-0.247
2023-11-04,07:30:00,-0.241
2023-11-04,07:40:00,-0.228
2023-11-04,07:50:00,-0.192
2023-11-04,08:00:00,-0.147
2023-11-04,08:10:00,-0.11
2023-11-04,08:20:00,-0.072
2023-11-04,08:30:00,-0.035
2023-11-04,08:40:00,0.007
2023-11-04,08:50:00,0.049
2023-11-04,09:00:00,0.094
2023-11-04,09:10:00,0.136
2023-11-04,09:20:00,0.18
2023-11-04,09:30:00,0.221
2023-11-04,09:40:00,0.265
2023-11-04,09:50:00,0.305
2023-11-04,10:00:00,0.348
2023-11-04,10:10:00,0.389
2023-11-04,10:20:00,0.43
2023-11-04,10:30:00,0.469
2023-11-04,10:40:00,0.508
2023-11-04,10:50:00,0.545
2023-11-04,11:00:00,0.583
2023-11-04,11:10:00,0.616
2023-11-04,11:20:00,0.653
2023-11-04,11:30:00,0.683
2023-11-04,11:40:00,0.717
2023-11-04,11:50:00,0.747
2023-11-04,12:00:00,0.777
2023-11-04,12:10:00,0.808
2023-11-04,12:20:00,0.837
2023-11-04,12:30:00,0.862
2023-11-04,12:40:00,0.887
2023-11-04,12:50:00,0.91
2023-11-04,13:00:00,0.933
2023-11-04,13:10:00,0.954
2023-11-04,13:20:00,0.973
2023-11-04,13:30:00,0.989
2023-11-04,13:40:00,1
2023-11-04,13:50:00,1.013
2023-11-04,14:00:00,1.021
2023-11-04,14:10:00,1.033
2023-11-04,14:20:00,1.037
2023-11-04,14:30:00,1.046
2023-11-04,14:40:00,1.048
2023-11-04,14:50:00,1.055
2023-11-04,15:00:00,1.05
2023-11-04,15:10:00,1.041
2023-11-04,15:20:00,1.034
2023-11-04,15:30:00,1.017
2023-11-04,15:40:00,1.002
2023-11-04,15:50:00,0.989
2023-11-04,16:00:00,0.976
2023-11-04,16:10:00,0.964
2023-11-04,16:20:00,0.949
2023-11-04,16:30:00,0.942
2023-11-04,16:40:00,0.932
2023-11-04,16:50:00,0.923
2023-11-04,17:00:00,0.911
2023-11-04,17:10:00,0.9
2023-11-04,17:20:00,0.887
2023-11-04,17:30:00,0.876
2023-11-04,17:40:00,0.862
2023-11-04,17:50:00,0.849
2023-11-04,18:00:00,0.842
2023-11-04,18:10:00,0.832
2023-11-04,18:20:00,0.819
2023-11-04,18:30:00,0.804
2023-11-04,18:40:00,0.792
2023-11-04,18:50:00,0.783
2023-11-04,19:00:00,0.774
2023-11-04,19:10:00,0.769
2023-11-04,19:20:00,0.762
2023-11-04,19:30:00,0.758
2023-11-04,19:40:00,0.749
2023-11-04,19:50:00,0.734
2023-11-04,20:00:00,0.716
2023-11-04,20:10:00,0.702
2023-11-04,20:20:00,0.689
2023-11-04,20:30:00,0.672
2023-11-04,20:40:00,0.653
2023-11-04,20:50:00,0.634
2023-11-04,21:00:00,0.613
2023-11-04,21:10:00,0.594
2023-11-04,21:20:00,0.573
2023-11-04,21:30:00,0.553
2023-11-04,21:40:00,0.536
2023-11-04,21:50:00,0.516
2023-11-04,22:00:00,0.494
2023-11-04,22:10:00,0.474
2023-11-04,22:20:00,0.453
2023-11-04,22:30:00,0.432
2023-11-04,22:40:00,0.409
2023-11-04,22:50:00,0.389
2023-11-04,23:00:00,0.368
2023-11-04,23:10:00,0.347
2023-11-04,23:20:00,0.326
2023-11-04,23:30:00,0.304
2023-11-04,23:40:00,0.284
2023-11-04,23:50:00,0.26
2023-11-05,00:00:00,0.241
2023-11-05,00:10:00,0.219
2023-11-05,00:20:00,0.197
2023-11-05,00:30:00,0.177
2023-11-05,00:40:00,0.157
2023-11-05,00:50:00,0.139
2023-11-05,01:00:00,0.119
2023-11-05,01:10:00,0.1
2023-11-05,01:20:00,0.081
2023-11-05,01:30:00,0.065
2023-11-05,01:40:00,0.046
2023-11-05,01:50:00,0.03
2023-11-05,02:00:00,0.011
2023-11-05,02:10:00,-0.002
2023-11-05,02:20:00,-0.017
2023-11-05,02:30:00,-0.031
2023-11-05,02:40:00,-0.047
2023-11-05,02:50:00,-0.057
2023-11-05,03:00:00,-0.07
2023-11-05,03:10:00,-0.083
2023-11-05,03:20:00,-0.095
2023-11-05,03:30:00,-0.106
2023-11-05,03:40:00,-0.116
2023-11-05,03:50:00,-0.123
2023-11-05,04:00:00,-0.136
2023-11-05,04:10:00,-0.143
2023-11-05,04:20:00,-0.151
2023-11-05,04:30:00,-0.156
2023-11-05,04:40:00,-0.164
2023-11-05,04:50:00,-0.171
2023-11-05,05:00:00,-0.178
2023-11-05,05:10:00,-0.18
2023-11-05,05:20:00,-0.19
2023-11-05,05:30:00,-0.195
2023-11-05,05:40:00,-0.198
2023-11-05,05:50:00,-0.202
2023-11-05,06:00:00,-0.207
2023-11-05,06:10:00,-0.21
2023-11-05,06:20:00,-0.213
2023-11-05,06:30:00,-0.217
2023-11-05,06:40:00,-0.221
2023-11-05,06:50:00,-0.227
2023-11-05,07:00:00,-0.232
2023-11-05,07:10:00,-0.234
2023-11-05,07:20:00,-0.236
2023-11-05,07:30:00,-0.238
2023-11-05,07:40:00,-0.239
2023-11-05,07:50:00,-0.24
2023-11-05,08:00:00,-0.235
2023-11-05,08:10:00,-0.222
2023-11-05,08:20:00,-0.199
2023-11-05,08:30:00,-0.168
2023-11-05,08:40:00,-0.135
2023-11-05,08:50:00,-0.103
2023-11-05,09:00:00,-0.068
2023-11-05,09:10:00,-0.035
2023-11-05,09:20:00,0.006
2023-11-05,09:30:00,0.04
2023-11-05,09:40:00,0.081
2023-11-05,09:50:00,0.12
2023-11-05,10:00:00,0.158
2023-11-05,10:10:00,0.195
2023-11-05,10:20:00,0.235
2023-11-05,10:30:00,0.272
2023-11-05,10:40:00,0.312
2023-11-05,10:50:00,0.349
2023-11-05,11:00:00,0.387
2023-11-05,11:10:00,0.421
2023-11-05,11:20:00,0.458
2023-11-05,11:30:00,0.491
2023-11-05,11:40:00,0.525
2023-11-05,11:50:00,0.558
2023-11-05,12:00:00,0.589
2023-11-05,12:10:00,0.62
2023-11-05,12:20:00,0.652
2023-11-05,12:30:00,0.681
2023-11-05,12:40:00,0.71
2023-11-05,12:50:00,0.74
2023-11-05,13:00:00,0.768
2023-11-05,13:10:00,0.791
2023-11-05,13:20:00,0.818
2023-11-05,13:30:00,0.841
2023-11-05,13:40:00,0.864
2023-11-05,13:50:00,0.883
2023-11-05,14:00:00,0.901
2023-11-05,14:10:00,0.918
2023-11-05,14:20:00,0.933
2023-11-05,14:30:00,0.944
2023-11-05,14:40:00,0.952
2023-11-05,14:50:00,0.957
2023-11-05,15:00:00,0.952
2023-11-05,15:10:00,0.947
2023-11-05,15:20:00,0.931
2023-11-05,15:30:00,0.93
2023-11-05,15:40:00,0.923
2023-11-05,15:50:00,0.91
2023-11-05,16:00:00,0.896
2023-11-05,16:10:00,0.885
2023-11-05,16:20:00,0.873
2023-11-05,16:30:00,0.864
2023-11-05,16:40:00,0.853
2023-11-05,16:50:00,0.843
2023-11-05,17:00:00,0.832
2023-11-05,17:10:00,0.821
2023-11-05,17:20:00,0.807
2023-11-05,17:30:00,0.791
2023-11-05,17:40:00,0.776
2023-11-05,17:50:00,0.764
2023-11-05,18:00:00,0.754
2023-11-05,18:10:00,0.742
2023-11-05,18:20:00,0.729
2023-11-05,18:30:00,0.717
2023-11-05,18:40:00,0.702
2023-11-05,18:50:00,0.689
2023-11-05,19:00:00,0.679
2023-11-05,19:10:00,0.666
2023-11-05,19:20:00,0.648
2023-11-05,19:30:00,0.628
2023-11-05,19:40:00,0.611
2023-11-05,19:50:00,0.593
2023-11-05,20:00:00,0.582
2023-11-05,20:10:00,0.565
2023-11-05,20:20:00,0.546
2023-11-05,20:30:00,0.531
2023-11-05,20:40:00,0.517
2023-11-05,20:50:00,0.503
2023-11-05,21:00:00,0.487
2023-11-05,21:10:00,0.471
2023-11-05,21:20:00,0.456
2023-11-05,21:30:00,0.439
2023-11-05,21:40:00,0.419
2023-11-05,21:50:00,0.4
2023-11-05,22:00:00,0.381
2023-11-05,22:10:00,0.361
2023-11-05,22:20:00,0.341
2023-11-05,22:30:00,0.323
2023-11-05,22:40:00,0.304
2023-11-05,22:50:00,0.285
2023-11-05,23:00:00,0.266
2023-11-05,23:10:00,0.248
2023-11-05,23:20:00,0.229
2023-11-05,23:30:00,0.21
2023-11-05,23:40:00,0.191
2023-11-05,23:50:00,0.174
2023-11-06,00:00:00,0.155
2023-11-06,00:10:00,0.137
2023-11-06,00:20:00,0.119
2023-11-06,00:30:00,0.101
2023-11-06,00:40:00,0.082
2023-11-06,00:50:00,0.066
2023-11-06,01:00:00,0.048
2023-11-06,01:10:00,0.032
2023-11-06,01:20:00,0.014
2023-11-06,01:30:00,0
2023-11-06,01:40:00,-0.016
2023-11-06,01:50:00,-0.029
2023-11-06,02:00:00,-0.044
2023-11-06,02:10:00,-0.058
2023-11-06,02:20:00,-0.071
2023-11-06,02:30:00,-0.084
2023-11-06,02:40:00,-0.096
2023-11-06,02:50:00,-0.108
2023-11-06,03:00:00,-0.12
2023-11-06,03:10:00,-0.131
2023-11-06,03:20:00,-0.142
2023-11-06,03:30:00,-0.151
2023-11-06,03:40:00,-0.161
2023-11-06,03:50:00,-0.173
2023-11-06,04:00:00,-0.178
2023-11-06,04:10:00,-0.183
2023-11-06,04:20:00,-0.191
2023-11-06,04:30:00,-0.198
2023-11-06,04:40:00,-0.201
2023-11-06,04:50:00,-0.21
2023-11-06,05:00:00,-0.215
2023-11-06,05:10:00,-0.221
2023-11-06,05:20:00,-0.226
2023-11-06,05:30:00,-0.233
2023-11-06,05:40:00,-0.235
2023-11-06,05:50:00,-0.24
2023-11-06,06:00:00,-0.243
2023-11-06,06:10:00,-0.247
2023-11-06,06:20:00,-0.251
2023-11-06,06:30:00,-0.253
2023-11-06,06:40:00,-0.256
2023-11-06,06:50:00,-0.259
2023-11-06,07:00:00,-0.262
2023-11-06,07:10:00,-0.265
2023-11-06,07:20:00,-0.269
2023-11-06,07:30:00,-0.27
2023-11-06,07:40:00,-0.273
2023-11-06,07:50:00,-0.274
2023-11-06,08:00:00,-0.275
2023-11-06,08:10:00,-0.275
2023-11-06,08:20:00,-0.273
2023-11-06,08:30:00,-0.266
2023-11-06,08:40:00,-0.249
2023-11-06,08:50:00,-0.229
2023-11-06,09:00:00,-0.198
2023-11-06,09:10:00,-0.172
2023-11-06,09:20:00,-0.149
2023-11-06,09:30:00,-0.119
2023-11-06,09:40:00,-0.084
2023-11-06,09:50:00,-0.052
2023-11-06,10:00:00,-0.016
2023-11-06,10:10:00,0.019
2023-11-06,10:20:00,0.055
2023-11-06,10:30:00,0.088
2023-11-06,10:40:00,0.123
2023-11-06,10:50:00,0.157
2023-11-06,11:00:00,0.194
2023-11-06,11:10:00,0.228
2023-11-06,11:20:00,0.264
2023-11-06,11:30:00,0.299
2023-11-06,11:40:00,0.332
2023-11-06,11:50:00,0.365
2023-11-06,12:00:00,0.398
2023-11-06,12:10:00,0.43
2023-11-06,12:20:00,0.463
2023-11-06,12:30:00,0.494
2023-11-06,12:40:00,0.525
2023-11-06,12:50:00,0.556
2023-11-06,13:00:00,0.587
2023-11-06,13:10:00,0.613
2023-11-06,13:20:00,0.64
2023-11-06,13:30:00,0.664
2023-11-06,13:40:00,0.688
2023-11-06,13:50:00,0.708
2023-11-06,14:00:00,0.733
2023-11-06,14:10:00,0.754
2023-11-06,14:20:00,0.777
2023-11-06,14:30:00,0.795
2023-11-06,14:40:00,0.811
2023-11-06,14:50:00,0.823
2023-11-06,15:00:00,0.838
2023-11-06,15:10:00,0.85
2023-11-06,15:20:00,0.857
2023-11-06,15:30:00,0.864
2023-11-06,15:40:00,0.86
2023-11-06,15:50:00,0.849
2023-11-06,16:00:00,0.831
2023-11-06,16:10:00,0.832
2023-11-06,16:20:00,0.843
2023-11-06,16:30:00,0.828
2023-11-06,16:40:00,0.819
2023-11-06,16:50:00,0.815
2023-11-06,17:00:00,0.797
2023-11-06,17:10:00,0.788
2023-11-06,17:20:00,0.771
2023-11-06,17:30:00,0.762
2023-11-06,17:40:00,0.751
2023-11-06,17:50:00,0.744
2023-11-06,18:00:00,0.732
2023-11-06,18:10:00,0.716
2023-11-06,18:20:00,0.707
2023-11-06,18:30:00,0.691
2023-11-06,18:40:00,0.678
2023-11-06,18:50:00,0.66
2023-11-06,19:00:00,0.647
2023-11-06,19:10:00,0.633
2023-11-06,19:20:00,0.612
2023-11-06,19:30:00,0.594
2023-11-06,19:40:00,0.582
2023-11-06,19:50:00,0.569
2023-11-06,20:00:00,0.549
2023-11-06,20:10:00,0.531
2023-11-06,20:20:00,0.517
2023-11-06,20:30:00,0.499
2023-11-06,20:40:00,0.484
2023-11-06,20:50:00,0.471
2023-11-06,21:00:00,0.454
2023-11-06,21:10:00,0.436
2023-11-06,21:20:00,0.426
2023-11-06,21:30:00,0.405
2023-11-06,21:40:00,0.387
2023-11-06,21:50:00,0.369
2023-11-06,22:00:00,0.348
2023-11-06,22:10:00,0.338
2023-11-06,22:20:00,0.325
2023-11-06,22:30:00,0.305
2023-11-06,22:40:00,0.292
2023-11-06,22:50:00,0.278
2023-11-06,23:00:00,0.264
2023-11-06,23:10:00,0.246
2023-11-06,23:20:00,0.229
2023-11-06,23:30:00,0.214
2023-11-06,23:40:00,0.198
2023-11-06,23:50:00,0.184
2023-11-07,00:00:00,0.168
2023-11-07,00:10:00,0.148
2023-11-07,00:20:00,0.134
2023-11-07,00:30:00,0.115
2023-11-07,00:40:00,0.103
2023-11-07,00:50:00,0.086
2023-11-07,01:00:00,0.071
2023-11-07,01:10:00,0.049
2023-11-07,01:20:00,0.033
2023-11-07,01:30:00,0.023
2023-11-07,01:40:00,0.006
2023-11-07,01:50:00,-0.007
2023-11-07,02:00:00,-0.021
2023-11-07,02:10:00,-0.036
2023-11-07,02:20:00,-0.05
2023-11-07,02:30:00,-0.065
2023-11-07,02:40:00,-0.078
2023-11-07,02:50:00,-0.091
2023-11-07,03:00:00,-0.104
2023-11-07,03:10:00,-0.116
2023-11-07,03:20:00,-0.124
2023-11-07,03:30:00,-0.138
2023-11-07,03:40:00,-0.15
2023-11-07,03:50:00,-0.159
2023-11-07,04:00:00,-0.17
2023-11-07,04:10:00,-0.173
2023-11-07,04:20:00,-0.183
2023-11-07,04:30:00,-0.191
2023-11-07,04:40:00,-0.2
2023-11-07,04:50:00,-0.208
2023-11-07,05:00:00,-0.213
2023-11-07,05:10:00,-0.221
2023-11-07,05:20:00,-0.226
2023-11-07,05:30:00,-0.234
2023-11-07,05:40:00,-0.239
2023-11-07,05:50:00,-0.245
2023-11-07,06:00:00,-0.248
2023-11-07,06:10:00,-0.254
2023-11-07,06:20:00,-0.255
2023-11-07,06:30:00,-0.259
2023-11-07,06:40:00,-0.263
2023-11-07,06:50:00,-0.266
2023-11-07,07:00:00,-0.269
2023-11-07,07:10:00,-0.274
2023-11-07,07:20:00,-0.277
2023-11-07,07:30:00,-0.279
2023-11-07,07:40:00,-0.281
2023-11-07,07:50:00,-0.282
2023-11-07,08:00:00,-0.282
2023-11-07,08:10:00,-0.279
2023-11-07,08:20:00,-0.273